Oakland, NJ (07436)

2:42 PM EDT on July 23, 2017 (GMT -0400)
NW Bergen County Skywarn | | Change Station

Elev 466 ft 41.02 °N, 74.24 °W | Updated 4 minutes ago

Overcast
Overcast
74.8 °F
Feels Like 76 °F
N
0.0
Wind Variable Wind from ESE
Gusts 6.0 mph

Today
High -- | Low -- °F
--% Chance of Precip.
Yesterday
High -- | Low -- °F
Precip. -- in
Pressure 29.85 in
Visibility 5.0 miles
Clouds Mostly Cloudy 2800 ft
Overcast 3900 ft
Heat Index 76 °F
Dew Point 68 °F
Humidity 78%
Rainfall 0.00 in
Snow Depth Not available.
5:44 AM 8:21 PM
New Moon, 0% visible
METAR KCDW 231753Z 15007KT 5SM -RA BKN028 OVC039 23/20 A2984 RMK AO2 RAE22B48 SLP108 P0000 60000 T02330200 10261 20228 53008 $
Pressure 29.85 in
Visibility 5.0 miles
Clouds Mostly Cloudy 2800 ft
Overcast 3900 ft
Heat Index 76 °F
Dew Point 68 °F
Humidity 78%
Rainfall 0.00 in
Snow Depth Not available.
5:44 AM 8:21 PM
New Moon, 0% visible
METAR KCDW 231753Z 15007KT 5SM -RA BKN028 OVC039 23/20 A2984 RMK AO2 RAE22B48 SLP108 P0000 60000 T02330200 10261 20228 53008 $

Get Severe Weather Alerts

Thanks for signing up!

Be on the lookout for a verification email in your inbox.

You'll start receiving the daily forecast at 6 AM.

×

10-Day Weather Forecast

Almanac

Astronomy

Jul. 23, 2017 Rise Set
Actual Time
Civil Twilight
Nautical Twilight
Astronomical Twilight
Moon
Length of Visible Light
Length of Day
Tomorrow will be .
, % of the Moon is Illuminated

Today's Extremes

State Highs State Lows

Community

WunderPhotos

Category 6

Welcome to Category 6. This is the collective home for Weather Underground's featured writeups by Dr. Jeff Masters (right), Bob Henson (left), Chris Burt, and other regular contributors.

Nearby

Air Quality

  Air Quality AQ Index Pollutant
Not available.

Snow Depth

Station Depth Elevation

Earthquake Activity

City Distance Mag. Time & Date
Minimum magnitude displayed is 2.5.

Coastal Water Temperatures

Place Temperature

Stations

Nearby Weather Stations

Station Location Temp. Windchill Dew Point Humidity Wind Precip. Elev Updated Type
                   

Watches & Warnings

There are currently no watches in effect.